When you browse on this site, cookies collect data to enhance your experience and personalize the content and advertising you see.
Visit our Privacy Policy to learn more. By continuing to use the site, you agree to this use of cookies and data.
  • In Hungary
  • List of Countries
  • For 7 days
  • Water Temperature
  • Satellite Maps
  • Weather Map
  • News
  • Weather Widgets
  • user-avatar
    Login

    Hourly Weather Almaty

    Today, 21 November, Wednesday

    Time Temperature Precipitation Wind Pressure Humidity
    00:00 +4°C° 0.2 mm 1 mps 691 mmHg 87%
    01:00 +3°C° 0.2 mm 1 mps 691 mmHg 89%
    02:00 +3°C° 0.2 mm 1 mps 691 mmHg 91%
    03:00 +3°C° 0.1 mm 1 mps 692 mmHg 90%
    04:00 +3°C° 0.1 mm 1 mps 692 mmHg 89%
    05:00 +3°C° 0.1 mm 1 mps 693 mmHg 88%
    06:00 +1°C° 0 mm 2 mps 693 mmHg 85%
    07:00 +1°C° 0 mm 2 mps 693 mmHg 83%
    08:00 0°C° 0 mm 3 mps 693 mmHg 80%
    09:00 +2°C° 0 mm 3 mps 693 mmHg 79%
    10:00 +3°C° 0 mm 4 mps 692 mmHg 78%
    11:00 +4°C° 0 mm 4 mps 691 mmHg 78%
    12:00 +5°C° 0 mm 4 mps 691 mmHg 77%
    13:00 +5°C° 0 mm 4 mps 690 mmHg 76%
    14:00 +6°C° 0 mm 4 mps 689 mmHg 75%
    15:00 +3°C° 0 mm 5 mps 688 mmHg 70%
    16:00 +2°C° 0 mm 5 mps 688 mmHg 65%
    17:00 +1°C° 0 mm 5 mps 688 mmHg 60%
    18:00 +2°C° 0 mm 5 mps 687 mmHg 59%
    19:00 +2°C° 0 mm 5 mps 687 mmHg 57%
    20:00 +2°C° 0 mm 6 mps 686 mmHg 55%
    21:00 +2°C° 0 mm 6 mps 685 mmHg 53%
    22:00 +2°C° 0 mm 6 mps 685 mmHg 51%
    23:00 +3°C° 0 mm 6 mps 684 mmHg 49%

    Tomorrow, 22 November, Thursday

    Time Temperature Precipitation Wind Pressure Humidity
    00:00 +3°C° 0 mm 6 mps 684 mmHg 49%
    01:00 +3°C° 0 mm 5 mps 683 mmHg 49%
    02:00 +5°C° 0 mm 5 mps 683 mmHg 49%
    03:00 +5°C° 0 mm 4 mps 682 mmHg 51%
    04:00 +4°C° 0 mm 3 mps 682 mmHg 52%
    05:00 +4°C° 0 mm 3 mps 682 mmHg 54%
    06:00 +6°C° 0 mm 2 mps 682 mmHg 56%
    07:00 +6°C° 0 mm 2 mps 682 mmHg 58%
    08:00 +6°C° 0 mm 2 mps 682 mmHg 59%
    09:00 +7°C° 0 mm 2 mps 682 mmHg 62%
    10:00 +7°C° 0 mm 2 mps 683 mmHg 64%
    11:00 +8°C° 0 mm 2 mps 683 mmHg 66%
    12:00 +8°C° 0 mm 2 mps 683 mmHg 69%
    13:00 +7°C° 0 mm 2 mps 683 mmHg 71%
    14:00 +8°C° 0 mm 1 mps 683 mmHg 73%
    15:00 +7°C° 0 mm 1 mps 684 mmHg 75%
    16:00 +6°C° 0 mm 1 mps 684 mmHg 78%
    17:00 +5°C° 0 mm 1 mps 685 mmHg 80%
    18:00 +5°C° 0.1 mm 1 mps 686 mmHg 80%
    19:00 +4°C° 0.1 mm 2 mps 686 mmHg 79%
    20:00 +4°C° 0.1 mm 2 mps 687 mmHg 78%
    21:00 +4°C° 0.1 mm 2 mps 687 mmHg 78%
    22:00 +4°C° 0.1 mm 2 mps 688 mmHg 77%
    23:00 +4°C° 0.1 mm 2 mps 688 mmHg 77%

    Day after tomorrow, 23 November, Friday

    Time Temperature Precipitation Wind Pressure Humidity
    00:00 +4°C° 0.1 mm 2 mps 688 mmHg 79%
    01:00 +5°C° 0.1 mm 2 mps 689 mmHg 80%
    02:00 +5°C° 0.1 mm 2 mps 689 mmHg 81%
    03:00 +5°C° 0.1 mm 2 mps 689 mmHg 82%
    04:00 +4°C° 0.1 mm 3 mps 690 mmHg 83%
    05:00 +4°C° 0.1 mm 3 mps 690 mmHg 83%
    06:00 +4°C° 0.1 mm 3 mps 690 mmHg 83%
    07:00 +4°C° 0.1 mm 3 mps 690 mmHg 83%
    08:00 +4°C° 0.1 mm 4 mps 691 mmHg 83%
    09:00 +5°C° 0 mm 4 mps 690 mmHg 80%
    10:00 +6°C° 0 mm 5 mps 689 mmHg 77%
    11:00 +7°C° 0 mm 5 mps 689 mmHg 75%
    12:00 +8°C° 0 mm 5 mps 688 mmHg 70%
    13:00 +8°C° 0 mm 6 mps 688 mmHg 66%
    14:00 +8°C° 0 mm 6 mps 687 mmHg 62%
    15:00 +8°C° 0.1 mm 5 mps 687 mmHg 62%
    16:00 +7°C° 0.1 mm 5 mps 688 mmHg 62%
    17:00 +7°C° 0.1 mm 4 mps 688 mmHg 62%
    18:00 +7°C° 0.1 mm 4 mps 688 mmHg 63%
    19:00 +6°C° 0.1 mm 4 mps 688 mmHg 65%
    20:00 +7°C° 0.1 mm 3 mps 688 mmHg 66%
    21:00 +7°C° 0 mm 3 mps 688 mmHg 66%
    22:00 +7°C° 0 mm 3 mps 688 mmHg 65%
    23:00 +6°C° 0 mm 4 mps 687 mmHg 65%

    24 November, Saturday

    Time Temperature Precipitation Wind Pressure Humidity
    00:00 +6°C° 0.1 mm 4 mps 687 mmHg 64%
    01:00 +7°C° 0.1 mm 4 mps 687 mmHg 64%
    02:00 +7°C° 0.1 mm 4 mps 687 mmHg 64%
    03:00 +7°C° 0.1 mm 4 mps 686 mmHg 64%
    04:00 +7°C° 0.1 mm 4 mps 686 mmHg 64%
    05:00 +7°C° 0.1 mm 4 mps 686 mmHg 65%
    06:00 +7°C° 0.1 mm 4 mps 686 mmHg 65%
    07:00 +8°C° 0.1 mm 3 mps 686 mmHg 66%
    08:00 +8°C° 0.1 mm 3 mps 685 mmHg 66%
    09:00 +8°C° 0 mm 4 mps 685 mmHg 64%
    10:00 +10°C° 0 mm 4 mps 684 mmHg 62%
    11:00 +11°C° 0 mm 4 mps 683 mmHg 60%
    12:00 +11°C° 0 mm 4 mps 682 mmHg 61%
    13:00 +11°C° 0 mm 4 mps 682 mmHg 61%
    14:00 +10°C° 0 mm 5 mps 681 mmHg 61%
    15:00 +10°C° 0.1 mm 4 mps 682 mmHg 68%
    16:00 +7°C° 0.1 mm 4 mps 683 mmHg 75%
    17:00 +7°C° 0.1 mm 3 mps 684 mmHg 83%
    18:00 +4°C° 1.5 mm 4 mps 686 mmHg 85%
    19:00 +1°C° 1.5 mm 5 mps 688 mmHg 88%
    20:00 -2°C° 1.5 mm 7 mps 690 mmHg 90%
    21:00 -3°C° 0.9 mm 6 mps 691 mmHg 89%
    22:00 -4°C° 0.9 mm 5 mps 692 mmHg 87%
    23:00 -4°C° 0.9 mm 4 mps 693 mmHg 86%

    25 November, Sunday

    Time Temperature Precipitation Wind Pressure Humidity
    00:00 -5°C° 0.2 mm 4 mps 694 mmHg 84%
    01:00 -5°C° 0.2 mm 3 mps 695 mmHg 82%
    02:00 -5°C° 0.2 mm 3 mps 695 mmHg 80%
    03:00 -6°C° 0 mm 3 mps 696 mmHg 79%
    04:00 -6°C° 0 mm 3 mps 697 mmHg 78%
    05:00 -7°C° 0 mm 3 mps 697 mmHg 77%
    06:00 -7°C° 0 mm 3 mps 698 mmHg 73%
    07:00 -6°C° 0 mm 2 mps 699 mmHg 69%
    08:00 -6°C° 0 mm 2 mps 699 mmHg 66%
    09:00 -6°C° 0 mm 3 mps 699 mmHg 63%
    10:00 -4°C° 0 mm 3 mps 699 mmHg 60%
    11:00 -1°C° 0 mm 3 mps 699 mmHg 58%
    12:00 -1°C° 0 mm 3 mps 699 mmHg 60%
    13:00 -1°C° 0 mm 3 mps 698 mmHg 63%
    14:00 -1°C° 0 mm 3 mps 698 mmHg 65%
    15:00 -2°C° 0 mm 3 mps 698 mmHg 61%
    16:00 -4°C° 0 mm 3 mps 698 mmHg 57%
    17:00 -5°C° 0 mm 3 mps 698 mmHg 53%
    18:00 -5°C° 0 mm 4 mps 698 mmHg 53%
    19:00 -4°C° 0 mm 4 mps 698 mmHg 52%
    20:00 -4°C° 0 mm 4 mps 698 mmHg 52%
    21:00 -4°C° 0 mm 4 mps 698 mmHg 53%
    22:00 -3°C° 0 mm 4 mps 697 mmHg 55%
    23:00 -3°C° 0 mm 4 mps 697 mmHg 56%

    26 November, Monday

    Time Temperature Precipitation Wind Pressure Humidity
    00:00 -4°C° 0 mm 5 mps 697 mmHg 56%
    01:00 -2°C° 0 mm 5 mps 696 mmHg 56%
    02:00 -2°C° 0 mm 5 mps 696 mmHg 56%
    03:00 -2°C° 0 mm 5 mps 695 mmHg 55%
    04:00 -2°C° 0 mm 5 mps 695 mmHg 53%
    05:00 -1°C° 0 mm 5 mps 694 mmHg 52%
    06:00 -1°C° 0 mm 5 mps 693 mmHg 50%
    07:00 -1°C° 0 mm 5 mps 693 mmHg 49%
    08:00 0°C° 0 mm 5 mps 692 mmHg 48%
    09:00 +1°C° 0 mm 5 mps 692 mmHg 51%
    10:00 +3°C° 0 mm 5 mps 691 mmHg 53%
    11:00 +5°C° 0 mm 5 mps 690 mmHg 56%
    12:00 +6°C° 0 mm 5 mps 689 mmHg 56%
    13:00 +6°C° 0 mm 5 mps 689 mmHg 57%
    14:00 +6°C° 0 mm 4 mps 688 mmHg 57%
    15:00 +5°C° 0 mm 4 mps 688 mmHg 54%
    16:00 +4°C° 0 mm 4 mps 688 mmHg 51%
    17:00 +4°C° 0 mm 3 mps 688 mmHg 48%
    18:00 +4°C° 0 mm 3 mps 688 mmHg 48%
    19:00 +4°C° 0 mm 3 mps 687 mmHg 48%
    20:00 +4°C° 0 mm 3 mps 687 mmHg 48%
    21:00 +4°C° 0 mm 3 mps 687 mmHg 49%
    22:00 +4°C° 0 mm 3 mps 687 mmHg 50%
    23:00 +4°C° 0 mm 3 mps 686 mmHg 51%
    Show more